Weather History for KSJT - July, 2012

Change the Weather History Date:

Monday, July 23, 2012

  Actual Average Record
Temperature  
Mean Temperature 87 °F 84 °F  
Max Temperature 100 °F 96 °F 108 °F (1911)
Min Temperature 73 °F 72 °F 56 °F (1915)
Degree Days  
Heating Degree Days 0 0  
Month to date heating degree days 0 0  
Since 1 June heating degree days 0 0  
Since 1 July heating degree days 0 0  
Cooling Degree Days 22 19  
Month to date cooling degree days 467 412  
Year to date cooling degree days 1794 1336  
Since 1 June cooling degree days 1089 876  
Growing Degree Days 38 (Base 50)    
Moisture  
Dew Point 62 °F    
Average Humidity 52    
Maximum Humidity 79    
Minimum Humidity 24    
Precipitation  
Precipitation T in 0.03 in 1.10 in (1990)
Month to date precipitation 0.44 0.90  
Year to date precipitation 13.53 11.51  
Sea Level Pressure  
Sea Level Pressure 29.98 in    
Wind  
Wind Speed 9 mph (SSE)    
Max Wind Speed 29 mph    
Max Gust Speed 36 mph    
Visibility 10 miles    
Events Rain , Thunderstorm    
T = Trace of Precipitation, MM = Missing Value Source: NWS Daily Summary

Daily Weather History Graph

Daily Weather History Graph

Search for Another Location

Airport or City:

Trip Planner

Search our weather history database for the weather conditions in past years. The results will help you decide how hot, cold, wet, or windy it might be!

Date:

Astronomy

Jul. 23, 2012 Rise Set
Actual Time 6:53 AM CDT 8:43 PM CDT
Civil Twilight 6:26 AM CDT 9:10 PM CDT
Nautical Twilight 5:53 AM CDT 9:42 PM CDT
Astronomical Twilight 5:19 AM CDT 10:17 PM CDT
Moon 11:22 AM CDT (7/23) 11:24 PM CDT (7/23)
Length of Visible Light 14h 44m
Length of Day
13h 50m
Waxing Crescent, 22% of the Moon is Illuminated
Jul 23
Waxing Crescent
Jul 26
First Quarter
Aug 1
Full
Aug 9
Last Quarter
Aug 17
New

Hourly Weather History & Observations

Time (CDT) Temp. Heat Index Dew Point Humidity Pressure Visibility Wind Dir Wind Speed Gust Speed Precip Events Conditions
12:01 AM 84.2 °F 84.4 °F 60.8 °F 45% 30.02 in 10.0 mi SSE 11.5 mph - N/A   Clear
12:51 AM 82.0 °F 83.0 °F 62.1 °F 51% 29.94 in 10.0 mi SSE 5.8 mph - N/A   Clear
1:51 AM 80.1 °F 81.7 °F 64.0 °F 58% 29.94 in 10.0 mi SSE 6.9 mph - N/A   Clear
2:51 AM 81.0 °F 81.9 °F 62.1 °F 52% 29.93 in 10.0 mi South 8.1 mph - N/A   Clear
3:51 AM 81.0 °F 81.6 °F 60.1 °F 49% 29.95 in 10.0 mi South 11.5 mph - N/A   Clear
4:51 AM 80.1 °F 81.1 °F 61.0 °F 52% 29.95 in 10.0 mi South 6.9 mph - N/A   Clear
5:51 AM 79.0 °F - 62.1 °F 56% 29.96 in 10.0 mi South 8.1 mph - N/A   Clear
6:51 AM 78.1 °F - 63.0 °F 60% 29.98 in 10.0 mi South 5.8 mph - N/A   Clear
7:51 AM 78.1 °F - 64.0 °F 62% 30.00 in 10.0 mi SSW 3.5 mph - N/A   Clear
8:51 AM 81.0 °F 82.7 °F 64.9 °F 58% 30.02 in 10.0 mi SSE 8.1 mph - N/A   Clear
9:51 AM 86.0 °F 87.6 °F 64.9 °F 49% 30.02 in 10.0 mi SSE 9.2 mph - N/A   Clear
10:51 AM 89.1 °F 91.0 °F 64.9 °F 45% 30.01 in 10.0 mi South 9.2 mph - N/A   Clear
11:51 AM 93.0 °F 94.2 °F 63.0 °F 37% 30.01 in 10.0 mi SSE 10.4 mph - N/A   Partly Cloudy
12:51 PM 93.9 °F 93.2 °F 59.0 °F 31% 29.99 in 10.0 mi SSW 10.4 mph - N/A   Scattered Clouds
1:51 PM 93.9 °F 92.9 °F 57.9 °F 30% 29.97 in 10.0 mi SE 10.4 mph 16.1 mph N/A   Scattered Clouds
2:51 PM 96.1 °F 94.8 °F 57.0 °F 27% 29.95 in 10.0 mi SE 10.4 mph 17.3 mph N/A   Mostly Cloudy
3:51 PM 98.1 °F 96.4 °F 55.9 °F 24% 29.91 in 10.0 mi Variable 5.8 mph - N/A   Partly Cloudy
4:09 PM 91.4 °F 91.4 °F 60.8 °F 36% 30.02 in 7.0 mi East 26.5 mph 34.5 mph N/A Thunderstorm Mostly Cloudy
4:51 PM 86.0 °F 86.1 °F 61.0 °F 43% 29.96 in 10.0 mi South 16.1 mph 25.3 mph N/A Thunderstorm Mostly Cloudy
5:51 PM 82.9 °F 83.3 °F 61.0 °F 47% 29.98 in 10.0 mi South 10.4 mph - 0.00 in Rain , Thunderstorm Light Rain
6:51 PM 81.0 °F 81.9 °F 62.1 °F 52% 29.98 in 10.0 mi SSE 13.8 mph - 0.00 in Thunderstorm Scattered Clouds
7:51 PM 79.0 °F - 64.0 °F 60% 30.00 in 10.0 mi ESE 13.8 mph - 0.00 in Rain , Thunderstorm Light Rain
8:02 PM 78.8 °F - 64.4 °F 61% 30.07 in 10.0 mi SE 11.5 mph - 0.00 in Rain Light Rain
8:51 PM 75.9 °F - 64.9 °F 69% 30.00 in 10.0 mi SSE 15.0 mph 20.7 mph 0.00 in   Scattered Clouds
9:51 PM 75.0 °F - 66.9 °F 76% 30.00 in 10.0 mi SSE 10.4 mph - 0.00 in Rain Light Rain
10:51 PM 75.0 °F - 66.9 °F 76% 29.99 in 10.0 mi Calm Calm - 0.00 in   Clear
11:51 PM 73.9 °F - 66.9 °F 79% 29.99 in 10.0 mi Calm Calm - N/A   Clear